{"data":{"norad_id":62987,"intl_designator":"2025-031G","name":"STARLINK-11539 [DTC]","alt_names":[],"object_type":"PAYLOAD","status":"ACTIVE","operator":null,"country":"US","launch_date":"2025-02-11","launch_site_code":"AFETR","launch_vehicle":null,"mission":null,"orbit_class":"UNKNOWN","rcs_meters":null,"size_class":null,"mass_kg":null,"dimensions":null,"purposes":["comms"],"wikipedia_slug":null,"has_3d_model":false,"image_url":null,"decayed_at":null,"tle_current":{"epoch":"2026-09-21T08:09:19.873440Z","epoch_age_seconds":92601,"freshness":"FRESH","line1":"1 62987U 25031G   26264.33981335  .00168861  00000+0  12914-2 0  9996","line2":"2 62987  42.9995 262.0951 0001301 318.7782  41.2987 15.70868081 93511","mean_motion":15.70868081,"eccentricity":0.0001301,"inclination_deg":42.9995,"raan_deg":262.0951,"arg_perigee_deg":318.7782,"mean_anomaly_deg":41.2987,"bstar":0.0012914,"rev_number":9351,"period_min":91.669059764924,"perigee_km":355.5386368213,"apogee_km":357.29096720018,"semimajor_km":6734.5518020107,"source":"CELESTRAK","updated_at":"2026-09-22T09:00:49.717523Z"}}}